sat.trackr.live / text

‹ back to catalog

STARLINK-31515

NORAD 59476 · 2024-068X

PAYLOAD ACTIVE UNKNOWN

§ Identity

Operator
Country
US
Launch date
2024-04-10
Launch site
AFETR
Launch vehicle
Mass (kg)
RCS (m²)

Purposes: comms

External: N2YO · Heavens-Above · Gunter

§ Orbital elements

Epoch: 2026-09-21T07:55:14.525472Z

Period
94.27 min
Inclination
43.0037°
Eccentricity
0.0001007
Mean motion
15.27577061 rev/d
Perigee alt
482.4 km
Apogee alt
483.7 km
Semi-major
6,861.2 km
B*
-2.8065e-5
RAAN
9.6180°
Arg perigee
275.4463°
Mean anomaly
84.6273°
Rev number
13,844

§ Raw data

STARLINK-315151 59476U 24068X   26264.33002923 -.00001034  00000+0 -28065-4 0  99972 59476  43.0037   9.6180 0001007 275.4463  84.6273 15.27577061138444

JSON: /api/v1/satellites/59476 · /tle

For live sub-satellite position, see the globe view (requires WebGL).

§ Visibility from observer

Set your observer location to see the next 7 days of passes ≥ 10°. The values pass through the URL so the page stays shareable.

No JS? Fill the form by hand. The geolocation button needs JavaScript.